When you browse on this site, cookies collect data to enhance your experience and personalize the content and advertising you see.
Visit our Privacy Policy to learn more. By continuing to use the site, you agree to this use of cookies and data.
  • In United Kingdom
  • List of Countries
  • For 7 days
  • Water Temperature
  • Satellite Maps
  • Weather Map
  • Weather Widgets
  • user-avatar
    Login

    Hourly Weather Manaus

    Today, 21 November, Wednesday

    Time Temperature Precipitation Wind Pressure Humidity
    00:00 +26°C° 0 mm 0 mps 753 mmHg 83%
    01:00 +26°C° 0 mm 0 mps 753 mmHg 84%
    02:00 +25°C° 0 mm 0 mps 753 mmHg 83%
    03:00 +25°C° 0 mm 0 mps 753 mmHg 83%
    04:00 +25°C° 0 mm 0 mps 753 mmHg 84%
    05:00 +25°C° 0 mm 0 mps 753 mmHg 85%
    06:00 +27°C° 0 mm 0 mps 754 mmHg 76%
    07:00 +29°C° 0 mm 0 mps 754 mmHg 67%
    08:00 +31°C° 0 mm 0 mps 755 mmHg 58%
    09:00 +33°C° 0 mm 0 mps 754 mmHg 52%
    10:00 +36°C° 0 mm 1 mps 754 mmHg 46%
    11:00 +39°C° 0 mm 2 mps 754 mmHg 40%
    12:00 +37°C° 0 mm 1 mps 753 mmHg 42%
    13:00 +37°C° 0 mm 1 mps 752 mmHg 44%
    14:00 +36°C° 0 mm 1 mps 752 mmHg 46%
    15:00 +35°C° 0 mm 1 mps 751 mmHg 48%
    16:00 +35°C° 0 mm 1 mps 751 mmHg 50%
    17:00 +34°C° 0 mm 1 mps 750 mmHg 53%
    18:00 +33°C° 0.3 mm 1 mps 751 mmHg 58%
    19:00 +32°C° 0.3 mm 1 mps 751 mmHg 63%
    20:00 +30°C° 0.3 mm 1 mps 752 mmHg 68%
    21:00 +29°C° 1.3 mm 1 mps 752 mmHg 75%
    22:00 +28°C° 1.3 mm 1 mps 753 mmHg 82%
    23:00 +27°C° 1.3 mm 1 mps 753 mmHg 89%

    Tomorrow, 22 November, Thursday

    Time Temperature Precipitation Wind Pressure Humidity
    00:00 +27°C° 0.5 mm 1 mps 753 mmHg 90%
    01:00 +27°C° 0.5 mm 1 mps 753 mmHg 92%
    02:00 +26°C° 0.5 mm 1 mps 753 mmHg 93%
    03:00 +24°C° 0 mm 0 mps 753 mmHg 93%
    04:00 +24°C° 0 mm 0 mps 752 mmHg 93%
    05:00 +24°C° 0 mm 0 mps 752 mmHg 94%
    06:00 +26°C° 0 mm 0 mps 753 mmHg 87%
    07:00 +27°C° 0 mm 0 mps 753 mmHg 81%
    08:00 +29°C° 0 mm 0 mps 754 mmHg 74%
    09:00 +33°C° 0.4 mm 1 mps 754 mmHg 66%
    10:00 +35°C° 0.4 mm 1 mps 753 mmHg 58%
    11:00 +37°C° 0.4 mm 1 mps 753 mmHg 50%
    12:00 +36°C° 0.3 mm 1 mps 752 mmHg 51%
    13:00 +36°C° 0.3 mm 1 mps 751 mmHg 53%
    14:00 +35°C° 0.3 mm 1 mps 751 mmHg 54%
    15:00 +34°C° 0.6 mm 1 mps 750 mmHg 60%
    16:00 +33°C° 0.6 mm 1 mps 750 mmHg 65%
    17:00 +32°C° 0.6 mm 1 mps 750 mmHg 71%
    18:00 +31°C° 0.6 mm 1 mps 751 mmHg 76%
    19:00 +29°C° 0.6 mm 1 mps 751 mmHg 81%
    20:00 +28°C° 0.6 mm 1 mps 752 mmHg 87%
    21:00 +28°C° 0.8 mm 1 mps 752 mmHg 88%
    22:00 +27°C° 0.8 mm 1 mps 753 mmHg 89%
    23:00 +27°C° 0.8 mm 1 mps 753 mmHg 91%

    Day after tomorrow, 23 November, Friday

    Time Temperature Precipitation Wind Pressure Humidity
    00:00 +27°C° 0.8 mm 1 mps 752 mmHg 91%
    01:00 +27°C° 0.8 mm 1 mps 752 mmHg 92%
    02:00 +27°C° 0.8 mm 1 mps 752 mmHg 92%
    03:00 +27°C° 0.1 mm 1 mps 751 mmHg 92%
    04:00 +27°C° 0.1 mm 1 mps 751 mmHg 92%
    05:00 +27°C° 0.1 mm 1 mps 751 mmHg 92%
    06:00 +27°C° 0.8 mm 1 mps 752 mmHg 91%
    07:00 +28°C° 0.8 mm 1 mps 753 mmHg 89%
    08:00 +27°C° 0.8 mm 0 mps 753 mmHg 87%
    09:00 +29°C° 1.9 mm 1 mps 753 mmHg 85%
    10:00 +30°C° 1.9 mm 1 mps 754 mmHg 83%
    11:00 +31°C° 1.9 mm 2 mps 754 mmHg 82%
    12:00 +30°C° 1.9 mm 2 mps 753 mmHg 82%
    13:00 +30°C° 1.9 mm 2 mps 752 mmHg 83%
    14:00 +30°C° 1.9 mm 2 mps 751 mmHg 84%
    15:00 +30°C° 0.9 mm 1 mps 751 mmHg 85%
    16:00 +29°C° 0.9 mm 1 mps 751 mmHg 86%
    17:00 +29°C° 0.9 mm 1 mps 751 mmHg 88%
    18:00 +26°C° 0.1 mm 0 mps 751 mmHg 90%
    19:00 +26°C° 0.1 mm 0 mps 752 mmHg 91%
    20:00 +25°C° 0.1 mm 0 mps 752 mmHg 93%
    21:00 +25°C° 0.1 mm 0 mps 752 mmHg 94%
    22:00 +25°C° 0.1 mm 0 mps 753 mmHg 94%
    23:00 +27°C° 0.1 mm 1 mps 753 mmHg 95%

    24 November, Saturday

    Time Temperature Precipitation Wind Pressure Humidity
    00:00 +26°C° 0.4 mm 1 mps 752 mmHg 95%
    01:00 +26°C° 0.4 mm 1 mps 752 mmHg 96%
    02:00 +26°C° 0.4 mm 1 mps 751 mmHg 97%
    03:00 +26°C° 0.3 mm 1 mps 751 mmHg 97%
    04:00 +26°C° 0.3 mm 1 mps 751 mmHg 97%
    05:00 +26°C° 0.3 mm 1 mps 752 mmHg 97%
    06:00 +24°C° 0.9 mm 0 mps 752 mmHg 95%
    07:00 +25°C° 0.9 mm 0 mps 753 mmHg 93%
    08:00 +26°C° 0.9 mm 0 mps 754 mmHg 91%
    09:00 +27°C° 2.7 mm 1 mps 754 mmHg 93%
    10:00 +27°C° 2.7 mm 1 mps 754 mmHg 94%
    11:00 +26°C° 2.7 mm 1 mps 754 mmHg 95%
    12:00 +26°C° 0.9 mm 1 mps 754 mmHg 94%
    13:00 +27°C° 0.9 mm 1 mps 753 mmHg 94%
    14:00 +27°C° 0.9 mm 1 mps 752 mmHg 94%
    15:00 +27°C° 0.1 mm 1 mps 752 mmHg 92%
    16:00 +27°C° 0.1 mm 1 mps 751 mmHg 91%
    17:00 +27°C° 0.1 mm 1 mps 751 mmHg 90%
    18:00 +25°C° 0 mm 0 mps 752 mmHg 92%
    19:00 +24°C° 0 mm 0 mps 752 mmHg 94%
    20:00 +24°C° 0 mm 0 mps 753 mmHg 96%
    21:00 +24°C° 0 mm 0 mps 753 mmHg 96%
    22:00 +23°C° 0 mm 0 mps 753 mmHg 96%
    23:00 +23°C° 0 mm 0 mps 753 mmHg 96%

    25 November, Sunday

    Time Temperature Precipitation Wind Pressure Humidity
    00:00 +23°C° 0.6 mm 0 mps 753 mmHg 97%
    01:00 +23°C° 0.6 mm 0 mps 752 mmHg 97%
    02:00 +23°C° 0.6 mm 0 mps 752 mmHg 98%
    03:00 +23°C° 0.8 mm 0 mps 752 mmHg 98%
    04:00 +23°C° 0.8 mm 0 mps 752 mmHg 98%
    05:00 +23°C° 0.8 mm 0 mps 753 mmHg 98%
    06:00 +24°C° 0.2 mm 0 mps 753 mmHg 96%
    07:00 +24°C° 0.2 mm 0 mps 754 mmHg 94%
    08:00 +25°C° 0.2 mm 0 mps 755 mmHg 91%
    09:00 +26°C° 0.8 mm 0 mps 755 mmHg 88%
    10:00 +27°C° 0.8 mm 0 mps 755 mmHg 84%
    11:00 +28°C° 0.8 mm 0 mps 755 mmHg 80%
    12:00 +30°C° 0.8 mm 1 mps 754 mmHg 81%
    13:00 +30°C° 0.8 mm 1 mps 753 mmHg 82%
    14:00 +30°C° 0.8 mm 1 mps 752 mmHg 83%
    15:00 +29°C° 0.2 mm 1 mps 752 mmHg 86%
    16:00 +28°C° 0.2 mm 1 mps 751 mmHg 88%
    17:00 +26°C° 0.2 mm 0 mps 751 mmHg 91%
    18:00 +25°C° 0.1 mm 0 mps 751 mmHg 92%
    19:00 +25°C° 0.1 mm 0 mps 752 mmHg 94%
    20:00 +24°C° 0.1 mm 0 mps 752 mmHg 95%
    21:00 +24°C° 0 mm 0 mps 753 mmHg 96%
    22:00 +24°C° 0 mm 0 mps 753 mmHg 97%
    23:00 +24°C° 0 mm 0 mps 753 mmHg 97%

    26 November, Monday

    Time Temperature Precipitation Wind Pressure Humidity
    00:00 +24°C° 0.1 mm 0 mps 753 mmHg 97%
    01:00 +24°C° 0.1 mm 0 mps 752 mmHg 97%
    02:00 +24°C° 0.1 mm 0 mps 752 mmHg 97%
    03:00 +24°C° 0.5 mm 0 mps 752 mmHg 97%
    04:00 +24°C° 0.5 mm 0 mps 752 mmHg 97%
    05:00 +24°C° 0.5 mm 0 mps 752 mmHg 98%
    06:00 +25°C° 0.7 mm 0 mps 753 mmHg 95%
    07:00 +25°C° 0.7 mm 0 mps 754 mmHg 92%
    08:00 +26°C° 0.7 mm 0 mps 754 mmHg 89%
    09:00 +27°C° 2 mm 0 mps 754 mmHg 86%
    10:00 +30°C° 2 mm 1 mps 754 mmHg 83%
    11:00 +31°C° 2 mm 1 mps 753 mmHg 81%
    12:00 +31°C° 1.6 mm 1 mps 752 mmHg 79%
    13:00 +32°C° 1.6 mm 1 mps 751 mmHg 77%
    14:00 +32°C° 1.6 mm 1 mps 750 mmHg 75%
    15:00 +30°C° 0.3 mm 0 mps 750 mmHg 75%
    16:00 +30°C° 0.3 mm 0 mps 750 mmHg 75%
    17:00 +29°C° 0.3 mm 0 mps 749 mmHg 75%
    18:00 +28°C° 0.3 mm 0 mps 750 mmHg 80%
    19:00 +29°C° 0.3 mm 1 mps 751 mmHg 84%
    20:00 +28°C° 0.3 mm 1 mps 752 mmHg 89%
    21:00 +28°C° 0.9 mm 1 mps 752 mmHg 90%
    22:00 +27°C° 0.9 mm 1 mps 752 mmHg 92%
    23:00 +25°C° 0.9 mm 0 mps 752 mmHg 94%
    Show more